Overview Statistics Trail Chart Weather Telemetry Raw packets
 

This is the latest recevied weather packets stored in our database for station/object K6POO-1. If no packets are shown the sender has not sent any weather packets the latest 10 day(s).

<< 15 16 17 18 19 20 21 >>
Time Temp. Humidity Pressure Rain* Wind** Luminosity Snow
1788582309 16.67° C 64% 1014.9 hPa 0 mm - 0 W/m² -
1788582004 17.22° C 62% 1014.7 hPa 0 mm - 0 W/m² -
1788581700 17.22° C 60% 1014.7 hPa 0 mm - 0 W/m² -
1788581395 17.22° C 61% 1014.8 hPa 0 mm - 0 W/m² -
1788581094 16.67° C 63% 1014.6 hPa 0 mm - 0 W/m² -
1788580793 17.22° C 65% 1014.6 hPa 0 mm - 0 W/m² -
1788580489 16.67° C 67% 1014.5 hPa 0 mm - 0 W/m² -
1788580186 16.67° C 67% 1014.5 hPa 0 mm - 0 W/m² -
1788579906 16.67° C 68% 1014.2 hPa 0 mm - 0 W/m² -
1788579580 16.67° C 68% 1014.3 hPa 0 mm - 0 W/m² -
1788579280 16.67° C 66% 1014.1 hPa 0 mm - 0 W/m² -
1788578974 16.67° C 67% 1014.2 hPa 0 mm - 0 W/m² -
1788578670 16.67° C 66% 1014.1 hPa 0 mm - 0 W/m² -
1788578365 16.67° C 68% 1014.4 hPa 0 mm - 0 W/m² -
1788578061 16.67° C 69% 1014.2 hPa 0 mm - 0 W/m² -
1788577756 16.67° C 67% 1014.3 hPa 0 mm - 0 W/m² -
1788577452 16.67° C 68% 1014.4 hPa 0 mm - 0 W/m² -
1788577150 16.67° C 68% 1014.2 hPa 0 mm - 0 W/m² -
1788576846 16.67° C 68% 1014.2 hPa 0 mm - 0 W/m² -
1788576542 16.67° C 68% 1014.1 hPa 0 mm - 0 W/m² -
1788576237 16.67° C 68% 1014.3 hPa 0 mm - 1 W/m² -
1788575932 16.67° C 71% 1014.3 hPa 0 mm - 2 W/m² -
1788575628 16.67° C 72% 1014.1 hPa 0 mm - 4 W/m² -
1788575326 16.67° C 73% 1014.2 hPa 0 mm - 8 W/m² -
1788575021 16.67° C 73% 1014.3 hPa 0 mm - 11 W/m² -

* Rain latest hour (hover to see other rain measurements)
** Current wind speed in m/s (hover to see current wind gust speed)